Terminal Aerodrome Forecast
Issued by NWS Omaha/Valley, NE

Home | Current Version | Previous Version | Graphics & Text | Print | Product List | Glossary On
Versions: 1 2 3 4 5 6 7 8 9 10 11 12 13 14 15 16 17 18 19 20 21 22 23 24 25 26 27 28 29 30 31 32 33 34 35 36 37 38 39 40 41 42 43 44 45 46 47 48 49 50
000
FTUS43 KOAX 061544 AAC
TAFOFK
TAF AMD
KOFK 061544Z 0616/0712 17018G30KT P6SM OVC025
      TEMPO 0616/0618 3SM -SHRA BR OVC015
     FM061800 17018G30KT P6SM OVC040
     FM070100 16015G25KT 6SM -SHRA BR OVC040
      TEMPO 0702/0705 3SM -TSRA BR OVC025CB
     FM070800 18012KT P6SM OVC050=

USA.gov is the U.S. government's official web portal to all federal, state and local government web resources and services.